Tracking 33200 objects as of 17-Feb-2026
HD Live streaming from Space Station
objects crossing your sky now

STARLINK-2706

Track STARLINK-2706 now!
10-day predictions
STARLINK-2706 is classified as:


NORAD ID: 48481
Int'l Code: 2021-040BF
Perigee: 481.6 km
Apogee: 483.1 km
Inclination: 53.2 °
Period: 94.1 minutes
Semi major axis: 6853 km
RCS: Unknown
Launch date: May 9, 2021
Source: United States (US)
Launch site: AIR FORCE EASTERN TEST RANGE (AFETR)
Your satellite tracking list
Your tracking list is empty




NASA's NSSDC Master Catalog

Two Line Element Set (TLE):
1 48481U 21040BF  26048.16010873  .00000176  00000-0  18075-4 0  9997
2 48481  53.1592 288.8735 0001102  94.3357 265.7770 15.30190536263321
Source of the keplerian elements: AFSPC